Home   Weather   Beira   Past weeks

Flag for Mozambique Past Weather in Beira, Mozambique — Yesterday and Last 2 Weeks

Now
77 °F

Partly sunny.


Feels Like: 79 °F
Forecast: 73 / 80 °F
Wind: N/A

Location: Beira Airport

Current Time: Apr 26, 2017 at 12:12:33 pm

Latest Report: Apr 26, 2017 at 11:00 am


Visibility: N/A

Pressure: 30.12 "Hg

Humidity: 79%

Dew Point: 70 °F

Location of BeiraLocation

Past Weather in Beira — Graph

°F

Beira Temperature Yesterday

Maximum temperature yesterday: 79 °F (at 1:00 pm)
Minimum temperature yesterday: 66 °F (at 2:00 am)
Average temperature yesterday: 73 °F

High & Low Weather Summary for the Past Weeks

 TemperatureHumidityPressure
High90 °F (Apr 13, 1:00 pm)100% (Apr 14, 6:00 am)30.15 "Hg (Apr 14, 6:00 am)
Low66 °F (Apr 24, 11:00 pm)58% (Apr 23, 3:00 pm)29.86 "Hg (Apr 12, 4:00 pm)
Average78 °F81%30.00 "Hg
* Reported Apr 11 12:00 pm — Apr 26 11:00 am, Beira, Weather by CustomWeather, © 2017

Note: Actual official high and low records may vary slightly from our data, if they occured in-between our weather recording intervals... More about our weather records

Advertising

Beira Weather History for the Previous 24 Hours

Scroll right to see more
 ConditionsComfort  
Time TempWeatherWind HumidityBarometerVisibility
11:00 am
Wed, Apr 26
77 °FPartly sunny.N/A79%30.12 "HgN/A
10:00 am73 °FBroken clouds.N/A78%30.15 "HgN/A
9:00 am72 °FBroken clouds.N/A83%30.12 "HgN/A
8:00 am70 °FBroken clouds.N/A94%30.12 "HgN/A
7:00 am72 °FBroken clouds.N/A94%30.12 "HgN/A
6:00 am72 °FDrizzle. More clouds than sun.N/A94%30.09 "Hg4 mi
5:00 am72 °FPassing clouds.N/A94%30.07 "HgN/A
3:00 am72 °FPassing clouds.N/A94%30.09 "HgN/A
2:00 am73 °FPassing clouds.N/A83%30.09 "HgN/A
1:00 am73 °FPassing clouds.N/A83%30.09 "HgN/A
12:00 am73 °FPassing clouds.N/A83%30.09 "HgN/A
11:00 pm
Tue, Apr 25
73 °FPassing clouds.N/A83%30.12 "HgN/A
10:00 pm75 °FPassing clouds.N/A83%30.12 "HgN/A
9:00 pm75 °FPassing clouds.N/A83%30.12 "HgN/A
8:00 pm75 °FPassing clouds.N/A83%30.09 "HgN/A
7:00 pm75 °FPassing clouds.N/A83%30.09 "HgN/A
6:00 pm77 °FPassing clouds.N/A79%30.07 "HgN/A
5:00 pm79 °FPassing clouds.N/A74%30.07 "HgN/A
4:00 pm79 °FPassing clouds.N/A79%30.07 "HgN/A
3:00 pm79 °FPassing clouds.N/A79%30.07 "HgN/A
2:00 pm79 °FPassing clouds.N/A79%30.07 "HgN/A
1:00 pm79 °FPassing clouds.N/A70%30.09 "HgN/A
Weather by CustomWeather, © 2017

See weather overviewHow to use our weather pages